Location: Rancho Santa Fe Post Office
(33.0184°N, 117.2026°W)
Time: 13:16:48
(UTC+00:00)

Daily predictions for brighter satellites

Satellite Brightness Start Highest point End
(mag) Time Altitude Azimuth Time Altitude Azimuth Time Altitude Azimuth
Cosmos 1867 3.5 12:03:58 29° SW 12:06:46 68° WNW 12:12:13 10° NNE
Cosmos 1666 3.7 12:11:09 10° NNW 12:12:49 23° NW 12:12:49 23° NW
Cosmos 2322 Rocket 2.1 12:09:22 10° NNW 12:14:57 61° WSW 12:20:28 10° S
DELTA 2 R/B (1) 4.4 12:12:35 19° WNW 12:16:18 43° N 12:21:34 10° ENE
ARGOS 3.7 12:16:35 10° NNE 12:21:52 60° E 12:27:09 10° S
NOSS 3-2 (C) 3.2 12:17:52 10° SSW 12:22:45 75° ESE 12:28:20 10° NNE
Cosmos 2219 Rocket 2.8 12:19:02 10° NNW 12:24:36 61° ENE 12:30:06 10° SSE
Cosmos 1862 4.2 12:22:43 10° NW 12:25:49 25° W 12:26:08 24° W
Chandra Rocket (1) 2.9 12:23:50 24° WSW 12:25:56 53° S 12:35:16 10° ESE
Cosmos 1758 Rocket 4.3 12:22:11 10° NNW 12:26:01 30° W 12:29:48 10° SSW
Cosmos 468 Rocket 3.9 12:21:51 10° NNW 12:27:06 82° WSW 12:32:21 10° SSE
Cosmos 2333 Rocket 2.2 12:22:30 10° NNW 12:28:08 63° WSW 12:33:42 10° S
Cosmos 1602 3.4 12:27:56 10° NNW 12:31:25 64° W 12:34:53 10° S
Cosmos 2058 Rocket 3.6 12:27:10 10° S 12:31:29 62° E 12:35:53 10° NNE
Cosmos 540 Rocket 3.5 12:30:32 10° NNW 12:35:31 55° WSW 12:40:29 10° S
SL-16 R/B 3.2 12:31:37 10° NW 12:35:51 22° W 12:40:04 10° SSW
Cosmos 1818 3.7 12:32:26 10° NW 12:37:44 53° WSW 12:42:58 10° S
Cosmos 1484 Rocket 2.7 12:36:07 10° N 12:39:46 56° WNW 12:43:27 10° SSW
Thor Agena Rocket 4.0 12:35:25 10° N 12:40:10 39° WNW 12:44:58 10° SW
H-2A R/B 3.8 12:38:48 10° NNE 12:41:32 35° E 12:44:15 10° SSE
Cosmos 1726 Rocket 3.9 12:38:53 10° SSW 12:42:57 42° W 12:47:04 10° N
Cosmos 1763 Rocket 4.2 12:40:52 10° NW 12:45:20 31° W 12:49:52 10° SSW
Cosmos 1850 Rocket 4.0 12:42:13 10° SSW 12:47:25 72° WNW 12:52:42 10° NNE
CZ-2C R/B 4.2 12:47:00 10° NW 12:49:02 13° WNW 12:50:54 10° W
Cosmos 1515 3.7 12:47:36 10° S 12:50:57 69° E 12:54:18 10° NNE
Cosmos 1939 Rocket 3.4 12:48:09 10° N 12:51:50 37° WNW 12:55:30 10° SW
Cosmos 1378 2.9 12:51:53 10° S 12:54:57 72° E 12:58:03 10° N
Cosmos 2151 2.9 12:52:00 10° NNW 12:56:03 57° W 13:00:07 10° S
NOSS 3-2 (A) 4.5 12:54:57 10° W 12:58:58 22° NW 13:03:24 10° N
Cosmos 2333 4.5 12:53:56 10° NW 12:59:17 45° WSW 13:04:34 10° S
SME Rocket 3.6 12:57:13 10° N 13:00:36 33° WNW 13:04:18 10° SW
Cosmos 1238 Rocket 3.9 12:56:13 10° S 13:01:31 78° E 13:07:14 10° N
COSMO-SKYMED 1 3.2 12:57:40 10° SSE 13:01:57 64° ENE 13:06:15 10° N
Atlas Centaur 2 2.8 12:59:17 10° WSW 13:05:09 65° S 13:12:29 10° E
ATLAS 5 CENTAUR R/B 4.2 13:10:32 10° W 13:30:56 32° SW 13:37:15 10° SSE
